星链-3338 (STARLINK-3338 )

导读

STARLINK-3338是美国太空探索技术公司星链星座的一员,于2022年1月6日发射升空,属于星链网络建设的批量组网卫星。星链旨在构建全球卫星互联网,该卫星承担低轨信号覆盖与通信传输任务,服务全球高速互联网接入需求,也推动了低轨卫星星座规模的持续扩张。

Basic Information
目录编号:
50812
目录名称:
STARLINK-3338
国际标识:
2022-001K
轨道中心:
EARTH
卫星名称:
星链-3338
卫星全名:
星链-3338 (STARLINK-3338 )
卫星状态:
在轨 (已飞行1703 天)
发射日期:
2022-01-06 UTC
国别 :
美国 (US)
星等 :
--
Orbit Information
数据来源 国际轨道数据
星历时间: 2026-09-05T06:27:01+0800
16小时前
查看轨道信息
半长轴: 6840.864km
偏心率: 0.0001141
轨道倾角: 53.161°
近地点辐角 93.162°
升交点赤经 68.240°
平近点角 266.951°
近地点: 461.946km
远地点: 463.508km
周期: 93.848分钟
每日圈数: 15.343921
Detailed Information
固有亮度:
5
最大亮度:
2.5
卫星平台:
Starlink v1.5
覆盖范围:
全球
运营商:
太空探索技术公司
运营商所在国:
美国
制造商(研发单位):
太空探索技术公司
制造商所在国:
美国
使用方式:
暂无
Satellite Introduction
星链(Starlink)计划是由太空探索技术公司(SpaceX)提出的一个巨型低轨卫星互联网星座项目,计划在2019年至2024年间在太空搭建由约1.2万颗卫星组成的“星链”网络,其中1584颗将部署在地球上空550千米处的近地轨道,并从2020年开始工作。该卫星仍在工作。
2D Orbit Map
3D Orbit Map
Orbit Altitude Analysis Chart
Orbit Inclination Analysis Chart
Orbit Comprehensive Analysis Chart
View Comprehensive Chart
Conjunction Data List
Event ID Objects TCA Miss Dist (km) Collision Risk Probability Collision Risk Index (CRI) Action
CDM_260907-224105-081206-661721
2026-09-07T
22:41:40+0000
0.282 km
中距离
3.289147E-4 高风险 0.85
CDM_260908-003005-081205-146721
2026-09-08T
00:30:52+0000
2.930 km
极远距离
1.14015E-6 低风险 0.36